Robstown, TX

5:56 PM CST on January 16, 2018 (GMT -0600)
Robstown

Weather History for KRBO - December, 2012

Change the Weather History Date:

Saturday, December 29, 2012

  Actual Average (KCRP) Record (KCRP)
Temperature  
Mean Temperature 46 °F -  
Max Temperature 56 °F 65 °F 84 °F (1996)
Min Temperature 36 °F 44 °F 26 °F (1983)
Degree Days  
Heating Degree Days 19    
Moisture  
Dew Point 23 °F    
Average Humidity 42    
Maximum Humidity 65    
Minimum Humidity 24    
Precipitation  
Precipitation 0.00 in - - ()
Sea Level Pressure  
Sea Level Pressure 30.39 in    
Wind  
Wind Speed 9 mph (North)    
Max Wind Speed 14 mph    
Max Gust Speed 21 mph    
Visibility 10 miles    
Events      
Averages and records for this station are not official NWS values.
T = Trace of Precipitation, MM = Missing Value Source: NWS Daily Summary

Daily Weather History Graph

Daily Weather History Graph

Search for Another Location

Airport or City:

Trip Planner

Search our weather history database for the weather conditions in past years. The results will help you decide how hot, cold, wet, or windy it might be!

Date:

Astronomy

Dec. 29, 2012 Rise Set
Actual Time 7:20 AM CST 5:45 PM CST
Civil Twilight 6:55 AM CST 6:11 PM CST
Nautical Twilight 6:26 AM CST 6:40 PM CST
Astronomical Twilight 5:57 AM CST 7:08 PM CST
Moon 7:10 PM CST (12/29) 8:02 AM CST (12/29)
Length of Visible Light 11h 15m
Length of Day
10h 24m
Full, 98% of the Moon is Illuminated
Dec 29
Full
Jan 4
Last Quarter
Jan 11
New
Jan 18
First Quarter
Jan 26
Full

Hourly Weather History & Observations

Time (CST) Temp. Windchill Dew Point Humidity Pressure Visibility Wind Dir Wind Speed Gust Speed Precip Events Conditions
12:15 AM 49.1 °F - 33.3 °F 54% 30.20 in 10.0 mi NNE 8.1 mph - N/A   Clear
12:35 AM 47.8 °F - 35.1 °F 61% 30.20 in 10.0 mi NNE 10.4 mph - N/A   Clear
12:55 AM 46.9 °F - 33.3 °F 59% 30.22 in 10.0 mi NNE 11.5 mph - N/A   Clear
1:15 AM 46.2 °F 40.8 °F 32.0 °F 58% 30.22 in 10.0 mi North 11.5 mph - N/A   Clear
1:35 AM 45.5 °F 40.3 °F 31.8 °F 59% 30.23 in 10.0 mi NNE 10.4 mph - N/A   Clear
1:55 AM 45.0 °F 38.9 °F 31.5 °F 59% 30.25 in 10.0 mi NNE 12.7 mph - N/A   Clear
2:15 AM 44.2 °F 40.3 °F 31.1 °F 60% 30.26 in 10.0 mi NNE 6.9 mph - N/A   Clear
2:35 AM 43.7 °F 39.1 °F 31.3 °F 62% 30.27 in 10.0 mi NNE 8.1 mph - N/A   Clear
2:55 AM 43.5 °F 37.9 °F 30.2 °F 59% 30.28 in 10.0 mi North 10.4 mph - N/A   Clear
3:15 AM 42.8 °F 38.0 °F 30.0 °F 61% 30.29 in 10.0 mi North 8.1 mph - N/A   Clear
3:35 AM 41.4 °F 35.7 °F 29.8 °F 64% 30.30 in 10.0 mi North 9.2 mph - N/A   Clear
3:55 AM 40.3 °F 35.5 °F 29.1 °F 64% 30.30 in 10.0 mi North 6.9 mph - N/A   Clear
4:15 AM 40.3 °F 35.5 °F 28.4 °F 63% 30.31 in 10.0 mi North 6.9 mph - N/A   Clear
4:35 AM 41.2 °F 36.0 °F 28.0 °F 60% 30.33 in 10.0 mi North 8.1 mph - N/A   Clear
4:55 AM 41.4 °F 34.0 °F 26.4 °F 55% 30.33 in 10.0 mi North 13.8 mph - N/A   Clear
5:15 AM 41.2 °F 35.0 °F 26.6 °F 56% 30.34 in 10.0 mi North 10.4 mph - N/A   Clear
5:35 AM 39.7 °F 34.9 °F 27.1 °F 61% 30.35 in 10.0 mi North 6.9 mph - N/A   Clear
5:55 AM 38.7 °F 34.3 °F 27.3 °F 64% 30.37 in 10.0 mi NNW 5.8 mph - N/A   Clear
6:15 AM 37.4 °F 33.8 °F 26.6 °F 65% 30.38 in 10.0 mi NNW 4.6 mph - N/A   Clear
6:35 AM 37.2 °F 30.6 °F 26.4 °F 65% 30.38 in 10.0 mi North 9.2 mph - N/A   Clear
7:15 AM 36.5 °F 29.2 °F 25.2 °F 64% 30.39 in 10.0 mi North 10.4 mph - N/A   Clear
7:35 AM 37.6 °F 31.6 °F 25.2 °F 61% 30.40 in 10.0 mi North 8.1 mph - N/A   Clear
7:55 AM 37.4 °F 33.8 °F 24.8 °F 60% 30.41 in 10.0 mi North 4.6 mph - N/A   Clear
8:15 AM 37.6 °F 32.3 °F 24.8 °F 60% 30.42 in 10.0 mi North 6.9 mph - N/A   Clear
8:35 AM 39.2 °F 33.0 °F 24.6 °F 56% 30.43 in 10.0 mi North 9.2 mph - N/A   Clear
8:55 AM 41.4 °F 34.7 °F 24.3 °F 51% 30.43 in 10.0 mi North 11.5 mph 16.1 mph N/A   Clear
9:15 AM 42.4 °F 35.3 °F 22.1 °F 44% 30.44 in 10.0 mi NNE 13.8 mph 20.7 mph N/A   Clear
9:35 AM 43.2 °F 37.0 °F 21.6 °F 42% 30.45 in 10.0 mi NNE 11.5 mph - N/A   Clear
9:55 AM 44.4 °F 37.9 °F 21.0 °F 39% 30.46 in 10.0 mi NNE 13.8 mph 20.7 mph N/A   Clear
10:15 AM 44.8 °F 39.0 °F 20.7 °F 38% 30.47 in 10.0 mi NNE 11.5 mph 16.1 mph N/A   Clear
10:35 AM 46.2 °F 41.2 °F 19.9 °F 35% 30.47 in 10.0 mi NNE 10.4 mph 16.1 mph N/A   Clear
10:55 AM 46.9 °F - 19.4 °F 34% 30.48 in 10.0 mi NNE 10.4 mph - N/A   Clear
11:15 AM 48.0 °F - 19.8 °F 33% 30.47 in 10.0 mi NNE 10.4 mph 18.4 mph N/A   Clear
11:35 AM 49.1 °F - 19.9 °F 32% 30.47 in 10.0 mi NNE 10.4 mph - N/A   Clear
12:15 PM 50.2 °F - 20.3 °F 31% 30.45 in 10.0 mi NNE 6.9 mph - N/A   Clear
12:35 PM 50.9 °F - 20.5 °F 30% 30.45 in 10.0 mi NNE 9.2 mph - N/A   Clear
12:55 PM 51.1 °F - 19.9 °F 29% 30.44 in 10.0 mi NNE 6.9 mph - N/A   Clear
1:15 PM 53.1 °F - 20.1 °F 28% 30.43 in 10.0 mi North 10.4 mph - N/A   Clear
1:35 PM 53.6 °F - 19.9 °F 27% 30.41 in 10.0 mi North 10.4 mph - N/A   Clear
1:55 PM 55.6 °F - 20.1 °F 25% 30.41 in 10.0 mi North 13.8 mph 19.6 mph N/A   Clear
2:15 PM 55.6 °F - 19.6 °F 25% 30.40 in 10.0 mi North 9.2 mph - N/A   Clear
2:35 PM 55.4 °F - 19.0 °F 24% 30.40 in 10.0 mi North 11.5 mph - N/A   Clear
2:55 PM 55.8 °F - 19.4 °F 24% 30.40 in 10.0 mi NNE 8.1 mph - N/A   Clear
3:15 PM 55.4 °F - 19.0 °F 24% 30.40 in 10.0 mi North 6.9 mph - N/A   Clear
3:35 PM 55.4 °F - 18.9 °F 24% 30.40 in 10.0 mi North 11.5 mph - N/A   Clear
4:15 PM 55.6 °F - 19.4 °F 24% 30.39 in 10.0 mi NNE 10.4 mph - N/A   Clear
4:35 PM 55.4 °F - 19.0 °F 24% 30.39 in 10.0 mi NNE 9.2 mph - N/A   Clear
4:55 PM 56.1 °F - 19.0 °F 24% 30.40 in 10.0 mi North 10.4 mph - N/A   Clear
5:15 PM 54.7 °F - 19.2 °F 25% 30.40 in 10.0 mi North 9.2 mph - N/A   Clear
5:35 PM 54.5 °F - 19.4 °F 25% 30.40 in 10.0 mi NNE 6.9 mph - N/A   Clear
5:55 PM 54.0 °F - 19.4 °F 26% 30.40 in 10.0 mi North 12.7 mph - N/A   Clear
6:15 PM 53.2 °F - 19.2 °F 26% 30.42 in 10.0 mi North 9.2 mph - N/A   Clear
6:35 PM 52.7 °F - 19.2 °F 27% 30.43 in 10.0 mi North 5.8 mph - N/A   Clear
6:55 PM 52.0 °F - 19.4 °F 28% 30.44 in 10.0 mi North 4.6 mph - N/A   Clear
7:15 PM 52.0 °F - 19.4 °F 28% 30.43 in 10.0 mi Calm Calm - N/A   Clear
7:35 PM 51.8 °F - 19.9 °F 29% 30.44 in 10.0 mi Calm Calm - N/A   Clear
7:55 PM 51.1 °F - 20.7 °F 30% 30.45 in 10.0 mi Calm Calm - N/A   Clear
8:15 PM 50.9 °F - 21.2 °F 31% 30.45 in 10.0 mi North 3.5 mph - N/A   Clear
8:35 PM 50.4 °F - 19.9 °F 30% 30.45 in 10.0 mi North 6.9 mph - N/A   Clear
8:55 PM 49.6 °F - 20.1 °F 31% 30.46 in 10.0 mi NNE 3.5 mph - N/A   Clear
9:15 PM 49.8 °F - 20.1 °F 31% 30.45 in 10.0 mi NE 5.8 mph - N/A   Clear
9:35 PM 49.6 °F - 20.7 °F 32% 30.46 in 10.0 mi NNE 4.6 mph - N/A   Clear
9:55 PM 49.1 °F - 21.0 °F 33% 30.46 in 10.0 mi NNE 4.6 mph - N/A   Clear
10:15 PM 47.7 °F - 21.6 °F 36% 30.46 in 10.0 mi North 4.6 mph - N/A   Clear
10:35 PM 46.2 °F - 21.7 °F 38% 30.47 in 10.0 mi Calm Calm - N/A   Clear
10:55 PM 45.9 °F - 22.3 °F 39% 30.46 in 10.0 mi Calm Calm - N/A   Clear
11:15 PM 46.4 °F - 22.3 °F 39% 30.46 in 10.0 mi Calm Calm - N/A   Clear
11:35 PM 46.0 °F 44.8 °F 22.1 °F 39% 30.44 in 10.0 mi NNE 3.5 mph - N/A   Clear